This is the latest recevied weather packets stored in our database for station/object SP1BMW-13. If no packets are shown the sender has not sent any weather packets the latest 10 day(s).
| Time | Temp. | Humidity | Pressure | Rain* | Wind** | Luminosity | Snow |
|---|---|---|---|---|---|---|---|
| 1788083677 | 25.56° C | 53% | 1008 hPa | 0 mm | 2.68 m/s, 167° | 244 W/m² | - |
| 1788083617 | 25.56° C | 55% | 1008 hPa | 0 mm | 0.45 m/s, 16° | 232 W/m² | - |
| 1788083557 | 25.56° C | 54% | 1007.9 hPa | 0 mm | 3.13 m/s, 127° | 688 W/m² | - |
| 1788083497 | 25° C | 56% | 1007.9 hPa | 0 mm | 0.89 m/s, 278° | 223 W/m² | - |
| 1788083437 | 25° C | 56% | 1007.8 hPa | 0 mm | 0.45 m/s, 277° | 217 W/m² | - |
| 1788083377 | 25° C | 55% | 1008.1 hPa | 0 mm | 0.45 m/s, 269° | 317 W/m² | - |
| 1788083319 | 25° C | 57% | 1007.9 hPa | 0 mm | 1.34 m/s, 229° | 248 W/m² | - |
| 1788083257 | 25° C | 54% | 1007.8 hPa | 0 mm | 0.89 m/s, 72° | 672 W/m² | - |
| 1788083199 | 25.56° C | 53% | 1008 hPa | 0 mm | 1.79 m/s, 273° | 675 W/m² | - |
| 1788083137 | 25.56° C | 53% | 1008 hPa | 0 mm | 2.24 m/s, 134° | 161 W/m² | - |
| 1788083077 | 25.56° C | 54% | 1007.8 hPa | 0 mm | 0.89 m/s, 280° | 183 W/m² | - |
| 1788083017 | 25.56° C | 54% | 1008 hPa | 0 mm | 0.89 m/s, 153° | 184 W/m² | - |
| 1788082957 | 25.56° C | 56% | 1008 hPa | 0 mm | 0.89 m/s, 179° | 191 W/m² | - |
| 1788082897 | 25.56° C | 56% | 1007.9 hPa | 0 mm | 0.45 m/s, 45° | 696 W/m² | - |
| 1788082837 | 25.56° C | 56% | 1008 hPa | 0 mm | 0.89 m/s, 132° | 667 W/m² | - |
| 1788082777 | 25.56° C | 55% | 1007.8 hPa | 0 mm | 1.79 m/s, 100° | 666 W/m² | - |
| 1788082717 | 25.56° C | 55% | 1008 hPa | 0 mm | 0.89 m/s, 217° | 200 W/m² | - |
| 1788082658 | 25.56° C | 56% | 1008.2 hPa | 0 mm | 0.89 m/s, 240° | 207 W/m² | - |
| 1788082597 | 25° C | 56% | 1008.1 hPa | 0 mm | 1.34 m/s, 295° | 650 W/m² | - |
| 1788082537 | 25° C | 56% | 1007.9 hPa | 0 mm | 1.79 m/s, 133° | 609 W/m² | - |
| 1788082477 | 25° C | 58% | 1008 hPa | 0 mm | 0.45 m/s, 37° | 575 W/m² | - |
| 1788082417 | 25° C | 57% | 1007.9 hPa | 0 mm | 0.45 m/s, 313° | 553 W/m² | - |
| 1788082357 | 25° C | 56% | 1008 hPa | 0 mm | 1.79 m/s, 147° | 551 W/m² | - |
| 1788082297 | 25° C | 57% | 1007.9 hPa | 0 mm | 1.34 m/s, 78° | 543 W/m² | - |
| 1788082237 | 25° C | 57% | 1007.9 hPa | 0 mm | 1.34 m/s, 125° | 539 W/m² | - |
* Rain latest hour (hover to see other rain measurements)
** Current wind speed in m/s (hover to see current wind gust speed)